C/2024 G1 ( Wierzchos )

Japanese version
Home page
Updated on July 18, 2024

---------------------------------------------------------------------

* Profile

Discovery Date April 7, 2024
Magnitude 20.6 mag
Discoverer Kacper W. Wierzchos (Bok reflector at Kitt Peak)

* Pictures

* Orbital Elements

Epoch 2024 Mar. 31.0 TT = JDT 2460400.5
T 2024 Oct. 21.07348 TT                                 Rudenko
q   3.9306010            (2000.0)            P               Q
z  +0.0080369      Peri.  128.22287     -0.49498862     -0.70593821
 +/-0.0000008      Node    30.58757     -0.65839157     -0.07574191
e   0.9684103      Incl.   95.40273     +0.56701571     -0.70421191
>From 84 observations 2024 Apr. 7-June 18, mean residual 0".6.

* Magnitudes Graph

        m1 = 9.5 + 5 log d + 10.0 log r

---------------------------------------------------------------------

The orbital elements are published on M.P.E.C. 2024-M41.
The magnitudes graphs are made with Comet for Windows.

---------------------------------------------------------------------

Copyright(C) Seiichi Yoshida (comet@aerith.net). All rights reserved.